owner,sensor,date,latitude,longitude,vertical_datum,wind_speed,wind_to_direction,wind_speed_of_gust,qcFlag 
LUMCON,ioos:station:LUMCON:101:1,2015-10-01T05:00:00Z,29.2533,-90.6633,1.0,16.6,345.0,-9999.0,'1111122,1111122,1111122' 
LUMCON,ioos:station:LUMCON:101:1,2015-10-01T05:15:00Z,29.2533,-90.6633,1.0,17.8,342.0,-9999.0,'1111122,1111122,1111122' 
LUMCON,ioos:station:LUMCON:101:1,2015-10-01T05:30:00Z,29.2533,-90.6633,1.0,16.3,343.0,-9999.0,'1111122,1111122,1111122' 
LUMCON,ioos:station:LUMCON:101:1,2015-10-01T05:45:00Z,29.2533,-90.6633,1.0,17.8,345.0,-9999.0,'1111122,1111122,1111122' 
LUMCON,ioos:station:LUMCON:101:1,2015-10-01T06:00:00Z,29.2533,-90.6633,1.0,18.2,343.0,-9999.0,'1111122,1111122,1111122' 
LUMCON,ioos:station:LUMCON:101:1,2015-10-01T06:15:00Z,29.2533,-90.6633,1.0,19.1,346.0,-9999.0,'1111122,1111122,1111122' 
LUMCON,ioos:station:LUMCON:101:1,2015-10-01T06:30:00Z,29.2533,-90.6633,1.0,15.4,350.0,-9999.0,'1111122,1111122,1111122' 
LUMCON,ioos:station:LUMCON:101:1,2015-10-01T06:45:00Z,29.2533,-90.6633,1.0,15.6,353.0,-9999.0,'1111122,1111122,1111122' 
LUMCON,ioos:station:LUMCON:101:1,2015-10-01T07:00:00Z,29.2533,-90.6633,1.0,16.5,352.0,-9999.0,'1111122,1111122,1111122' 
LUMCON,ioos:station:LUMCON:101:1,2015-10-01T07:15:00Z,29.2533,-90.6633,1.0,13.1,354.0,-9999.0,'1111122,1111122,1111122' 
LUMCON,ioos:station:LUMCON:101:1,2015-10-01T07:30:00Z,29.2533,-90.6633,1.0,14.8,352.0,-9999.0,'1111122,1111122,1111122' 
LUMCON,ioos:station:LUMCON:101:1,2015-10-01T07:45:00Z,29.2533,-90.6633,1.0,13.9,351.0,-9999.0,'1111122,1111122,1111122' 
LUMCON,ioos:station:LUMCON:101:1,2015-10-01T08:00:00Z,29.2533,-90.6633,1.0,15.5,352.0,-9999.0,'1111122,1111122,1111122' 
LUMCON,ioos:station:LUMCON:101:1,2015-10-01T08:15:00Z,29.2533,-90.6633,1.0,10.6,352.0,-9999.0,'1111122,1111122,1111122' 
LUMCON,ioos:station:LUMCON:101:1,2015-10-01T08:30:00Z,29.2533,-90.6633,1.0,12.6,347.0,-9999.0,'1111122,1111122,1111122' 
LUMCON,ioos:station:LUMCON:101:1,2015-10-01T08:45:00Z,29.2533,-90.6633,1.0,13.1,353.0,-9999.0,'1111122,1111122,1111122' 
LUMCON,ioos:station:LUMCON:101:1,2015-10-01T09:00:00Z,29.2533,-90.6633,1.0,12.2,351.0,-9999.0,'1111122,1111122,1111122' 
LUMCON,ioos:station:LUMCON:101:1,2015-10-01T09:15:00Z,29.2533,-90.6633,1.0,14.8,347.0,-9999.0,'1111122,1111122,1111122' 
LUMCON,ioos:station:LUMCON:101:1,2015-10-01T09:30:00Z,29.2533,-90.6633,1.0,14.3,346.0,-9999.0,'1111122,1111122,1111122' 
LUMCON,ioos:station:LUMCON:101:1,2015-10-01T09:45:00Z,29.2533,-90.6633,1.0,16.5,345.0,-9999.0,'1111122,1111122,1111122' 
LUMCON,ioos:station:LUMCON:101:1,2015-10-01T10:00:00Z,29.2533,-90.6633,1.0,16.5,342.0,-9999.0,'1111122,1111122,1111122' 
LUMCON,ioos:station:LUMCON:101:1,2015-10-01T10:15:00Z,29.2533,-90.6633,1.0,16.8,345.0,-9999.0,'1111122,1111122,1111122' 
LUMCON,ioos:station:LUMCON:101:1,2015-10-01T10:30:00Z,29.2533,-90.6633,1.0,13.6,345.0,-9999.0,'1111122,1111122,1111122' 
LUMCON,ioos:station:LUMCON:101:1,2015-10-01T10:45:00Z,29.2533,-90.6633,1.0,17.2,343.0,-9999.0,'1111122,1111122,1111122' 
LUMCON,ioos:station:LUMCON:101:1,2015-10-01T11:00:00Z,29.2533,-90.6633,1.0,17.6,347.0,-9999.0,'1111122,1111122,1111122' 
LUMCON,ioos:station:LUMCON:101:1,2015-10-01T11:15:00Z,29.2533,-90.6633,1.0,13.3,347.0,-9999.0,'1111122,1111122,1111122' 
LUMCON,ioos:station:LUMCON:101:1,2015-10-01T11:30:00Z,29.2533,-90.6633,1.0,15.7,353.0,-9999.0,'1111122,1111122,1111122' 
LUMCON,ioos:station:LUMCON:101:1,2015-10-01T11:45:00Z,29.2533,-90.6633,1.0,15.6,351.0,-9999.0,'1111122,1111122,1111122' 
LUMCON,ioos:station:LUMCON:101:1,2015-10-01T12:00:00Z,29.2533,-90.6633,1.0,12.8,357.0,-9999.0,'1111122,1111122,1111122' 
LUMCON,ioos:station:LUMCON:101:1,2015-10-01T12:15:00Z,29.2533,-90.6633,1.0,11.5,348.0,-9999.0,'1111122,1111122,1111122' 
LUMCON,ioos:station:LUMCON:101:1,2015-10-01T12:30:00Z,29.2533,-90.6633,1.0,14.4,345.0,-9999.0,'1111122,1111122,1111122' 
LUMCON,ioos:station:LUMCON:101:1,2015-10-01T12:45:00Z,29.2533,-90.6633,1.0,21.2,341.0,-9999.0,'1111122,1111122,1111122' 
LUMCON,ioos:station:LUMCON:101:1,2015-10-01T13:00:00Z,29.2533,-90.6633,1.0,20.6,343.0,-9999.0,'1111122,1111122,1111122' 
LUMCON,ioos:station:LUMCON:101:1,2015-10-01T13:15:00Z,29.2533,-90.6633,1.0,18.7,343.0,-9999.0,'1111122,1111122,1111122' 
LUMCON,ioos:station:LUMCON:101:1,2015-10-01T13:30:00Z,29.2533,-90.6633,1.0,17.3,352.0,-9999.0,'1111122,1111122,1111122' 
LUMCON,ioos:station:LUMCON:101:1,2015-10-01T13:45:00Z,29.2533,-90.6633,1.0,16.0,346.0,-9999.0,'1111122,1111122,1111122' 
LUMCON,ioos:station:LUMCON:101:1,2015-10-01T14:00:00Z,29.2533,-90.6633,1.0,15.4,349.0,-9999.0,'1111122,1111122,1111122' 
LUMCON,ioos:station:LUMCON:101:1,2015-10-01T14:15:00Z,29.2533,-90.6633,1.0,13.1,334.0,-9999.0,'1111122,1111122,1111122' 
LUMCON,ioos:station:LUMCON:101:1,2015-10-01T14:30:00Z,29.2533,-90.6633,1.0,16.0,342.0,-9999.0,'1111122,1111122,1111122' 
LUMCON,ioos:station:LUMCON:101:1,2015-10-01T14:45:00Z,29.2533,-90.6633,1.0,14.2,323.0,-9999.0,'1111122,1111122,1111122' 
LUMCON,ioos:station:LUMCON:101:1,2015-10-01T15:00:00Z,29.2533,-90.6633,1.0,13.8,331.0,-9999.0,'1111122,1111122,1111122' 
LUMCON,ioos:station:LUMCON:101:1,2015-10-01T15:15:00Z,29.2533,-90.6633,1.0,13.9,342.0,-9999.0,'1111122,1111122,1111122' 
LUMCON,ioos:station:LUMCON:101:1,2015-10-01T15:30:00Z,29.2533,-90.6633,1.0,15.3,325.0,-9999.0,'1111122,1111122,1111122' 
LUMCON,ioos:station:LUMCON:101:1,2015-10-01T15:45:00Z,29.2533,-90.6633,1.0,12.8,330.0,-9999.0,'1111122,1111122,1111122' 
LUMCON,ioos:station:LUMCON:101:1,2015-10-01T16:00:00Z,29.2533,-90.6633,1.0,12.8,329.0,-9999.0,'1111122,1111122,1111122' 
LUMCON,ioos:station:LUMCON:101:1,2015-10-01T16:15:00Z,29.2533,-90.6633,1.0,16.0,338.0,-9999.0,'1111122,1111122,1111122' 
LUMCON,ioos:station:LUMCON:101:1,2015-10-01T16:30:00Z,29.2533,-90.6633,1.0,15.3,341.0,-9999.0,'1111122,1111122,1111122' 
LUMCON,ioos:station:LUMCON:101:1,2015-10-01T16:45:00Z,29.2533,-90.6633,1.0,13.8,332.0,-9999.0,'1111122,1111122,1111122' 
LUMCON,ioos:station:LUMCON:101:1,2015-10-01T17:00:00Z,29.2533,-90.6633,1.0,15.1,344.0,-9999.0,'1111122,1111122,1111122' 
LUMCON,ioos:station:LUMCON:101:1,2015-10-01T17:15:00Z,29.2533,-90.6633,1.0,11.3,339.0,-9999.0,'1111122,1111122,1111122' 
LUMCON,ioos:station:LUMCON:101:1,2015-10-01T17:30:00Z,29.2533,-90.6633,1.0,12.9,350.0,-9999.0,'1111122,1111122,1111122' 
LUMCON,ioos:station:LUMCON:101:1,2015-10-01T17:45:00Z,29.2533,-90.6633,1.0,15.2,337.0,-9999.0,'1111122,1111122,1111122' 
LUMCON,ioos:station:LUMCON:101:1,2015-10-01T18:00:00Z,29.2533,-90.6633,1.0,14.3,347.0,-9999.0,'1111122,1111122,1111122' 
LUMCON,ioos:station:LUMCON:101:1,2015-10-01T18:15:00Z,29.2533,-90.6633,1.0,12.9,356.0,-9999.0,'1111122,1111122,1111122' 
LUMCON,ioos:station:LUMCON:101:1,2015-10-01T18:30:00Z,29.2533,-90.6633,1.0,16.1,343.0,-9999.0,'1111122,1111122,1111122' 
LUMCON,ioos:station:LUMCON:101:1,2015-10-01T18:45:00Z,29.2533,-90.6633,1.0,15.0,347.0,-9999.0,'1111122,1111122,1111122' 
LUMCON,ioos:station:LUMCON:101:1,2015-10-01T19:00:00Z,29.2533,-90.6633,1.0,13.3,334.0,-9999.0,'1111122,1111122,1111122' 
LUMCON,ioos:station:LUMCON:101:1,2015-10-01T19:15:00Z,29.2533,-90.6633,1.0,14.1,332.0,-9999.0,'1111122,1111122,1111122' 
LUMCON,ioos:station:LUMCON:101:1,2015-10-01T19:30:00Z,29.2533,-90.6633,1.0,15.1,330.0,-9999.0,'1111122,1111122,1111122' 
LUMCON,ioos:station:LUMCON:101:1,2015-10-01T19:45:00Z,29.2533,-90.6633,1.0,16.6,342.0,-9999.0,'1111122,1111122,1111122' 
LUMCON,ioos:station:LUMCON:101:1,2015-10-01T20:00:00Z,29.2533,-90.6633,1.0,17.4,341.0,-9999.0,'1111122,1111122,1111122' 
LUMCON,ioos:station:LUMCON:101:1,2015-10-01T20:15:00Z,29.2533,-90.6633,1.0,15.4,339.0,-9999.0,'1111122,1111122,1111122' 
LUMCON,ioos:station:LUMCON:101:1,2015-10-01T20:30:00Z,29.2533,-90.6633,1.0,14.7,324.0,-9999.0,'1111122,1111122,1111122' 
LUMCON,ioos:station:LUMCON:101:1,2015-10-01T20:45:00Z,29.2533,-90.6633,1.0,12.6,328.0,-9999.0,'1111122,1111122,1111122' 
LUMCON,ioos:station:LUMCON:101:1,2015-10-01T21:00:00Z,29.2533,-90.6633,1.0,13.4,345.0,-9999.0,'1111122,1111122,1111122' 
LUMCON,ioos:station:LUMCON:101:1,2015-10-01T21:15:00Z,29.2533,-90.6633,1.0,14.4,335.0,-9999.0,'1111122,1111122,1111122' 
LUMCON,ioos:station:LUMCON:101:1,2015-10-01T21:30:00Z,29.2533,-90.6633,1.0,14.4,337.0,-9999.0,'1111122,1111122,1111122' 
LUMCON,ioos:station:LUMCON:101:1,2015-10-01T21:45:00Z,29.2533,-90.6633,1.0,15.8,339.0,-9999.0,'1111122,1111122,1111122' 
LUMCON,ioos:station:LUMCON:101:1,2015-10-01T22:00:00Z,29.2533,-90.6633,1.0,14.8,337.0,-9999.0,'1111122,1111122,1111122' 
LUMCON,ioos:station:LUMCON:101:1,2015-10-01T22:15:00Z,29.2533,-90.6633,1.0,12.6,323.0,-9999.0,'1111122,1111122,1111122' 
LUMCON,ioos:station:LUMCON:101:1,2015-10-01T22:30:00Z,29.2533,-90.6633,1.0,14.0,312.0,-9999.0,'1111122,1111122,1111122' 
LUMCON,ioos:station:LUMCON:101:1,2015-10-01T22:45:00Z,29.2533,-90.6633,1.0,17.6,326.0,-9999.0,'1111122,1111122,1111122' 
LUMCON,ioos:station:LUMCON:101:1,2015-10-01T23:00:00Z,29.2533,-90.6633,1.0,12.7,316.0,-9999.0,'1111122,1111122,1111122' 
LUMCON,ioos:station:LUMCON:101:1,2015-10-01T23:15:00Z,29.2533,-90.6633,1.0,14.5,309.0,-9999.0,'1111122,1111122,1111122' 
LUMCON,ioos:station:LUMCON:101:1,2015-10-01T23:30:00Z,29.2533,-90.6633,1.0,11.7,310.0,-9999.0,'1111122,1111122,1111122' 
LUMCON,ioos:station:LUMCON:101:1,2015-10-01T23:45:00Z,29.2533,-90.6633,1.0,11.1,308.0,-9999.0,'1111122,1111122,1111122' 
LUMCON,ioos:station:LUMCON:101:1,2015-10-02T05:00:00Z,29.2533,-90.6633,1.0,20.9,339.0,-9999.0,'1111122,1111122,1111122' 
LUMCON,ioos:station:LUMCON:101:1,2015-10-02T05:15:00Z,29.2533,-90.6633,1.0,20.2,338.0,-9999.0,'1111122,1111122,1111122' 
LUMCON,ioos:station:LUMCON:101:1,2015-10-02T05:30:00Z,29.2533,-90.6633,1.0,20.7,338.0,-9999.0,'1111122,1111122,1111122' 
LUMCON,ioos:station:LUMCON:101:1,2015-10-02T05:45:00Z,29.2533,-90.6633,1.0,20.0,342.0,-9999.0,'1111122,1111122,1111122' 
LUMCON,ioos:station:LUMCON:101:1,2015-10-02T06:00:00Z,29.2533,-90.6633,1.0,19.7,338.0,-9999.0,'1111122,1111122,1111122' 
LUMCON,ioos:station:LUMCON:101:1,2015-10-02T06:15:00Z,29.2533,-90.6633,1.0,20.8,339.0,-9999.0,'1111122,1111122,1111122' 
LUMCON,ioos:station:LUMCON:101:1,2015-10-02T06:30:00Z,29.2533,-90.6633,1.0,16.2,339.0,-9999.0,'1111122,1111122,1111122' 
LUMCON,ioos:station:LUMCON:101:1,2015-10-02T06:45:00Z,29.2533,-90.6633,1.0,18.0,340.0,-9999.0,'1111122,1111122,1111122' 
LUMCON,ioos:station:LUMCON:101:1,2015-10-02T07:00:00Z,29.2533,-90.6633,1.0,14.2,335.0,-9999.0,'1111122,1111122,1111122' 
LUMCON,ioos:station:LUMCON:101:1,2015-10-02T07:15:00Z,29.2533,-90.6633,1.0,16.6,338.0,-9999.0,'1111122,1111122,1111122' 
LUMCON,ioos:station:LUMCON:101:1,2015-10-02T07:30:00Z,29.2533,-90.6633,1.0,18.8,338.0,-9999.0,'1111122,1111122,1111122' 
LUMCON,ioos:station:LUMCON:101:1,2015-10-02T07:45:00Z,29.2533,-90.6633,1.0,20.8,337.0,-9999.0,'1111122,1111122,1111122' 
LUMCON,ioos:station:LUMCON:101:1,2015-10-02T08:00:00Z,29.2533,-90.6633,1.0,16.0,344.0,-9999.0,'1111122,1111122,1111122' 
LUMCON,ioos:station:LUMCON:101:1,2015-10-02T08:15:00Z,29.2533,-90.6633,1.0,16.6,339.0,-9999.0,'1111122,1111122,1111122' 
LUMCON,ioos:station:LUMCON:101:1,2015-10-02T08:30:00Z,29.2533,-90.6633,1.0,14.0,343.0,-9999.0,'1111122,1111122,1111122' 
LUMCON,ioos:station:LUMCON:101:1,2015-10-02T08:45:00Z,29.2533,-90.6633,1.0,16.9,337.0,-9999.0,'1111122,1111122,1111122' 
LUMCON,ioos:station:LUMCON:101:1,2015-10-02T09:00:00Z,29.2533,-90.6633,1.0,18.3,340.0,-9999.0,'1111122,1111122,1111122' 
LUMCON,ioos:station:LUMCON:101:1,2015-10-02T09:15:00Z,29.2533,-90.6633,1.0,14.7,341.0,-9999.0,'1111122,1111122,1111122' 
LUMCON,ioos:station:LUMCON:101:1,2015-10-02T09:30:00Z,29.2533,-90.6633,1.0,12.8,333.0,-9999.0,'1111122,1111122,1111122' 
LUMCON,ioos:station:LUMCON:101:1,2015-10-02T09:45:00Z,29.2533,-90.6633,1.0,14.8,330.0,-9999.0,'1111122,1111122,1111122' 
LUMCON,ioos:station:LUMCON:101:1,2015-10-02T10:00:00Z,29.2533,-90.6633,1.0,14.5,331.0,-9999.0,'1111122,1111122,1111122' 
LUMCON,ioos:station:LUMCON:101:1,2015-10-02T10:15:00Z,29.2533,-90.6633,1.0,13.9,325.0,-9999.0,'1111122,1111122,1111122' 
LUMCON,ioos:station:LUMCON:101:1,2015-10-02T10:30:00Z,29.2533,-90.6633,1.0,15.2,326.0,-9999.0,'1111122,1111122,1111122' 
LUMCON,ioos:station:LUMCON:101:1,2015-10-02T10:45:00Z,29.2533,-90.6633,1.0,14.3,328.0,-9999.0,'1111122,1111122,1111122' 
LUMCON,ioos:station:LUMCON:101:1,2015-10-02T11:00:00Z,29.2533,-90.6633,1.0,12.6,318.0,-9999.0,'1111122,1111122,1111122' 
LUMCON,ioos:station:LUMCON:101:1,2015-10-02T11:15:00Z,29.2533,-90.6633,1.0,14.3,323.0,-9999.0,'1111122,1111122,1111122' 
LUMCON,ioos:station:LUMCON:101:1,2015-10-02T11:30:00Z,29.2533,-90.6633,1.0,11.5,323.0,-9999.0,'1111122,1111122,1111122' 
LUMCON,ioos:station:LUMCON:101:1,2015-10-02T11:45:00Z,29.2533,-90.6633,1.0,13.6,324.0,-9999.0,'1111122,1111122,1111122' 
LUMCON,ioos:station:LUMCON:101:1,2015-10-02T12:00:00Z,29.2533,-90.6633,1.0,12.5,325.0,-9999.0,'1111122,1111122,1111122' 
LUMCON,ioos:station:LUMCON:101:1,2015-10-02T12:15:00Z,29.2533,-90.6633,1.0,12.6,325.0,-9999.0,'1111122,1111122,1111122' 
LUMCON,ioos:station:LUMCON:101:1,2015-10-02T12:30:00Z,29.2533,-90.6633,1.0,14.2,320.0,-9999.0,'1111122,1111122,1111122' 
LUMCON,ioos:station:LUMCON:101:1,2015-10-02T12:45:00Z,29.2533,-90.6633,1.0,15.3,323.0,-9999.0,'1111122,1111122,1111122' 
LUMCON,ioos:station:LUMCON:101:1,2015-10-02T13:00:00Z,29.2533,-90.6633,1.0,15.7,322.0,-9999.0,'1111122,1111122,1111122' 
LUMCON,ioos:station:LUMCON:101:1,2015-10-02T13:15:00Z,29.2533,-90.6633,1.0,15.8,327.0,-9999.0,'1111122,1111122,1111122' 
LUMCON,ioos:station:LUMCON:101:1,2015-10-02T13:30:00Z,29.2533,-90.6633,1.0,13.4,331.0,-9999.0,'1111122,1111122,1111122' 
LUMCON,ioos:station:LUMCON:101:1,2015-10-02T13:45:00Z,29.2533,-90.6633,1.0,18.4,329.0,-9999.0,'1111122,1111122,1111122' 
LUMCON,ioos:station:LUMCON:101:1,2015-10-02T14:00:00Z,29.2533,-90.6633,1.0,15.3,333.0,-9999.0,'1111122,1111122,1111122' 
LUMCON,ioos:station:LUMCON:101:1,2015-10-02T14:15:00Z,29.2533,-90.6633,1.0,15.4,342.0,-9999.0,'1111122,1111122,1111122' 
LUMCON,ioos:station:LUMCON:101:1,2015-10-02T14:30:00Z,29.2533,-90.6633,1.0,18.1,326.0,-9999.0,'1111122,1111122,1111122' 
LUMCON,ioos:station:LUMCON:101:1,2015-10-02T14:45:00Z,29.2533,-90.6633,1.0,17.8,329.0,-9999.0,'1111122,1111122,1111122' 
LUMCON,ioos:station:LUMCON:101:1,2015-10-02T15:00:00Z,29.2533,-90.6633,1.0,14.5,331.0,-9999.0,'1111122,1111122,1111122' 
LUMCON,ioos:station:LUMCON:101:1,2015-10-02T15:15:00Z,29.2533,-90.6633,1.0,16.5,333.0,-9999.0,'1111122,1111122,1111122' 
LUMCON,ioos:station:LUMCON:101:1,2015-10-02T15:30:00Z,29.2533,-90.6633,1.0,17.2,325.0,-9999.0,'1111122,1111122,1111122' 
LUMCON,ioos:station:LUMCON:101:1,2015-10-02T15:45:00Z,29.2533,-90.6633,1.0,14.8,320.0,-9999.0,'1111122,1111122,1111122' 
LUMCON,ioos:station:LUMCON:101:1,2015-10-02T16:00:00Z,29.2533,-90.6633,1.0,12.6,326.0,-9999.0,'1111122,1111122,1111122' 
LUMCON,ioos:station:LUMCON:101:1,2015-10-02T16:15:00Z,29.2533,-90.6633,1.0,15.8,328.0,-9999.0,'1111122,1111122,1111122' 
LUMCON,ioos:station:LUMCON:101:1,2015-10-02T16:30:00Z,29.2533,-90.6633,1.0,14.8,340.0,-9999.0,'1111122,1111122,1111122' 
LUMCON,ioos:station:LUMCON:101:1,2015-10-02T16:45:00Z,29.2533,-90.6633,1.0,15.2,331.0,-9999.0,'1111122,1111122,1111122' 
LUMCON,ioos:station:LUMCON:101:1,2015-10-02T17:00:00Z,29.2533,-90.6633,1.0,13.1,328.0,-9999.0,'1111122,1111122,1111122' 
LUMCON,ioos:station:LUMCON:101:1,2015-10-02T17:15:00Z,29.2533,-90.6633,1.0,14.3,339.0,-9999.0,'1111122,1111122,1111122' 
LUMCON,ioos:station:LUMCON:101:1,2015-10-02T17:30:00Z,29.2533,-90.6633,1.0,12.0,341.0,-9999.0,'1111122,1111122,1111122' 
LUMCON,ioos:station:LUMCON:101:1,2015-10-02T17:45:00Z,29.2533,-90.6633,1.0,15.1,334.0,-9999.0,'1111122,1111122,1111122' 
LUMCON,ioos:station:LUMCON:101:1,2015-10-02T18:00:00Z,29.2533,-90.6633,1.0,16.3,343.0,-9999.0,'1111122,1111122,1111122' 
LUMCON,ioos:station:LUMCON:101:1,2015-10-02T18:15:00Z,29.2533,-90.6633,1.0,13.0,351.0,-9999.0,'1111122,1111122,1111122' 
LUMCON,ioos:station:LUMCON:101:1,2015-10-02T18:30:00Z,29.2533,-90.6633,1.0,13.8,347.0,-9999.0,'1111122,1111122,1111122' 
LUMCON,ioos:station:LUMCON:101:1,2015-10-02T18:45:00Z,29.2533,-90.6633,1.0,11.2,337.0,-9999.0,'1111122,1111122,1111122' 
LUMCON,ioos:station:LUMCON:101:1,2015-10-02T19:00:00Z,29.2533,-90.6633,1.0,14.0,347.0,-9999.0,'1111122,1111122,1111122' 
LUMCON,ioos:station:LUMCON:101:1,2015-10-02T19:15:00Z,29.2533,-90.6633,1.0,13.1,343.0,-9999.0,'1111122,1111122,1111122' 
LUMCON,ioos:station:LUMCON:101:1,2015-10-02T19:30:00Z,29.2533,-90.6633,1.0,12.8,341.0,-9999.0,'1111122,1111122,1111122' 
LUMCON,ioos:station:LUMCON:101:1,2015-10-02T19:45:00Z,29.2533,-90.6633,1.0,10.9,332.0,-9999.0,'1111122,1111122,1111122' 
LUMCON,ioos:station:LUMCON:101:1,2015-10-02T20:00:00Z,29.2533,-90.6633,1.0,11.6,351.0,-9999.0,'1111122,1111122,1111122' 
LUMCON,ioos:station:LUMCON:101:1,2015-10-02T20:15:00Z,29.2533,-90.6633,1.0,13.2,333.0,-9999.0,'1111122,1111122,1111122' 
LUMCON,ioos:station:LUMCON:101:1,2015-10-02T20:30:00Z,29.2533,-90.6633,1.0,13.6,330.0,-9999.0,'1111122,1111122,1111122' 
LUMCON,ioos:station:LUMCON:101:1,2015-10-02T20:45:00Z,29.2533,-90.6633,1.0,14.6,339.0,-9999.0,'1111122,1111122,1111122' 
LUMCON,ioos:station:LUMCON:101:1,2015-10-02T21:00:00Z,29.2533,-90.6633,1.0,14.5,333.0,-9999.0,'1111122,1111122,1111122' 
LUMCON,ioos:station:LUMCON:101:1,2015-10-02T21:15:00Z,29.2533,-90.6633,1.0,12.9,349.0,-9999.0,'1111122,1111122,1111122' 
LUMCON,ioos:station:LUMCON:101:1,2015-10-02T21:30:00Z,29.2533,-90.6633,1.0,17.3,330.0,-9999.0,'1111122,1111122,1111122' 
LUMCON,ioos:station:LUMCON:101:1,2015-10-02T21:45:00Z,29.2533,-90.6633,1.0,12.3,336.0,-9999.0,'1111122,1111122,1111122' 
LUMCON,ioos:station:LUMCON:101:1,2015-10-02T22:00:00Z,29.2533,-90.6633,1.0,15.2,348.0,-9999.0,'1111122,1111122,1111122' 
LUMCON,ioos:station:LUMCON:101:1,2015-10-02T22:15:00Z,29.2533,-90.6633,1.0,15.7,334.0,-9999.0,'1111122,1111122,1111122' 
LUMCON,ioos:station:LUMCON:101:1,2015-10-02T22:30:00Z,29.2533,-90.6633,1.0,13.3,339.0,-9999.0,'1111122,1111122,1111122' 
LUMCON,ioos:station:LUMCON:101:1,2015-10-02T22:45:00Z,29.2533,-90.6633,1.0,13.1,339.0,-9999.0,'1111122,1111122,1111122' 
LUMCON,ioos:station:LUMCON:101:1,2015-10-02T23:00:00Z,29.2533,-90.6633,1.0,12.7,331.0,-9999.0,'1111122,1111122,1111122' 
LUMCON,ioos:station:LUMCON:101:1,2015-10-02T23:15:00Z,29.2533,-90.6633,1.0,13.7,337.0,-9999.0,'1111122,1111122,1111122' 
LUMCON,ioos:station:LUMCON:101:1,2015-10-02T23:30:00Z,29.2533,-90.6633,1.0,11.2,359.0,-9999.0,'1111122,1111122,1111122' 
LUMCON,ioos:station:LUMCON:101:1,2015-10-02T23:45:00Z,29.2533,-90.6633,1.0,12.3,10.0,-9999.0,'1111122,1111122,1111122' 
LUMCON,ioos:station:LUMCON:101:1,2015-10-03T05:00:00Z,29.2533,-90.6633,1.0,11.4,356.0,-9999.0,'1111122,1111122,1111122' 
LUMCON,ioos:station:LUMCON:101:1,2015-10-03T05:15:00Z,29.2533,-90.6633,1.0,11.8,357.0,-9999.0,'1111122,1111122,1111122' 
LUMCON,ioos:station:LUMCON:101:1,2015-10-03T05:30:00Z,29.2533,-90.6633,1.0,12.0,355.0,-9999.0,'1111122,1111122,1111122' 
LUMCON,ioos:station:LUMCON:101:1,2015-10-03T05:45:00Z,29.2533,-90.6633,1.0,12.9,354.0,-9999.0,'1111122,1111122,1111122' 
LUMCON,ioos:station:LUMCON:101:1,2015-10-03T06:00:00Z,29.2533,-90.6633,1.0,11.7,349.0,-9999.0,'1111122,1111122,1111122' 
LUMCON,ioos:station:LUMCON:101:1,2015-10-03T06:15:00Z,29.2533,-90.6633,1.0,11.5,349.0,-9999.0,'1111122,1111122,1111122' 
LUMCON,ioos:station:LUMCON:101:1,2015-10-03T06:30:00Z,29.2533,-90.6633,1.0,13.0,348.0,-9999.0,'1111122,1111122,1111122' 
LUMCON,ioos:station:LUMCON:101:1,2015-10-03T06:45:00Z,29.2533,-90.6633,1.0,13.5,343.0,-9999.0,'1111122,1111122,1111122' 
LUMCON,ioos:station:LUMCON:101:1,2015-10-03T07:00:00Z,29.2533,-90.6633,1.0,11.1,352.0,-9999.0,'1111122,1111122,1111122' 
LUMCON,ioos:station:LUMCON:101:1,2015-10-03T07:15:00Z,29.2533,-90.6633,1.0,12.6,345.0,-9999.0,'1111122,1111122,1111122' 
LUMCON,ioos:station:LUMCON:101:1,2015-10-03T07:30:00Z,29.2533,-90.6633,1.0,12.1,346.0,-9999.0,'1111122,1111122,1111122' 
LUMCON,ioos:station:LUMCON:101:1,2015-10-03T07:45:00Z,29.2533,-90.6633,1.0,13.1,353.0,-9999.0,'1111122,1111122,1111122' 
LUMCON,ioos:station:LUMCON:101:1,2015-10-03T08:00:00Z,29.2533,-90.6633,1.0,14.0,345.0,-9999.0,'1111122,1111122,1111122' 
LUMCON,ioos:station:LUMCON:101:1,2015-10-03T08:15:00Z,29.2533,-90.6633,1.0,14.2,341.0,-9999.0,'1111122,1111122,1111122' 
LUMCON,ioos:station:LUMCON:101:1,2015-10-03T08:30:00Z,29.2533,-90.6633,1.0,13.1,348.0,-9999.0,'1111122,1111122,1111122' 
LUMCON,ioos:station:LUMCON:101:1,2015-10-03T08:45:00Z,29.2533,-90.6633,1.0,13.8,346.0,-9999.0,'1111122,1111122,1111122' 
LUMCON,ioos:station:LUMCON:101:1,2015-10-03T09:00:00Z,29.2533,-90.6633,1.0,14.8,347.0,-9999.0,'1111122,1111122,1111122' 
LUMCON,ioos:station:LUMCON:101:1,2015-10-03T09:15:00Z,29.2533,-90.6633,1.0,12.0,349.0,-9999.0,'1111122,1111122,1111122' 
LUMCON,ioos:station:LUMCON:101:1,2015-10-03T09:30:00Z,29.2533,-90.6633,1.0,11.6,339.0,-9999.0,'1111122,1111122,1111122' 
LUMCON,ioos:station:LUMCON:101:1,2015-10-03T09:45:00Z,29.2533,-90.6633,1.0,14.0,355.0,-9999.0,'1111122,1111122,1111122' 
LUMCON,ioos:station:LUMCON:101:1,2015-10-03T10:00:00Z,29.2533,-90.6633,1.0,12.5,4.0,-9999.0,'1111122,1111122,1111122' 
LUMCON,ioos:station:LUMCON:101:1,2015-10-03T10:15:00Z,29.2533,-90.6633,1.0,10.2,340.0,-9999.0,'1111122,1111122,1111122' 
LUMCON,ioos:station:LUMCON:101:1,2015-10-03T10:30:00Z,29.2533,-90.6633,1.0,12.2,358.0,-9999.0,'1111122,1111122,1111122' 
LUMCON,ioos:station:LUMCON:101:1,2015-10-03T10:45:00Z,29.2533,-90.6633,1.0,13.8,4.0,-9999.0,'1111122,1111122,1111122' 
LUMCON,ioos:station:LUMCON:101:1,2015-10-03T11:00:00Z,29.2533,-90.6633,1.0,10.5,359.0,-9999.0,'1111122,1111122,1111122' 
LUMCON,ioos:station:LUMCON:101:1,2015-10-03T11:15:00Z,29.2533,-90.6633,1.0,10.9,326.0,-9999.0,'1111122,1111122,1111122' 
LUMCON,ioos:station:LUMCON:101:1,2015-10-03T11:30:00Z,29.2533,-90.6633,1.0,12.0,334.0,-9999.0,'1111122,1111122,1111122' 
LUMCON,ioos:station:LUMCON:101:1,2015-10-03T11:45:00Z,29.2533,-90.6633,1.0,9.2,340.0,-9999.0,'1111122,1111122,1111122' 
LUMCON,ioos:station:LUMCON:101:1,2015-10-03T12:00:00Z,29.2533,-90.6633,1.0,11.1,321.0,-9999.0,'1111122,1111122,1111122' 
LUMCON,ioos:station:LUMCON:101:1,2015-10-03T12:15:00Z,29.2533,-90.6633,1.0,11.6,314.0,-9999.0,'1111122,1111122,1111122' 
LUMCON,ioos:station:LUMCON:101:1,2015-10-03T12:30:00Z,29.2533,-90.6633,1.0,12.8,304.0,-9999.0,'1111122,1111122,1111122' 
LUMCON,ioos:station:LUMCON:101:1,2015-10-03T12:45:00Z,29.2533,-90.6633,1.0,12.5,315.0,-9999.0,'1111122,1111122,1111122' 
LUMCON,ioos:station:LUMCON:101:1,2015-10-03T13:00:00Z,29.2533,-90.6633,1.0,11.0,321.0,-9999.0,'1111122,1111122,1111122' 
LUMCON,ioos:station:LUMCON:101:1,2015-10-03T13:15:00Z,29.2533,-90.6633,1.0,10.4,319.0,-9999.0,'1111122,1111122,1111122' 
LUMCON,ioos:station:LUMCON:101:1,2015-10-03T13:30:00Z,29.2533,-90.6633,1.0,9.9,305.0,-9999.0,'1111122,1111122,1111122' 
LUMCON,ioos:station:LUMCON:101:1,2015-10-03T13:45:00Z,29.2533,-90.6633,1.0,11.1,342.0,-9999.0,'1111122,1111122,1111122' 
LUMCON,ioos:station:LUMCON:101:1,2015-10-03T14:00:00Z,29.2533,-90.6633,1.0,10.6,311.0,-9999.0,'1111122,1111122,1111122' 
LUMCON,ioos:station:LUMCON:101:1,2015-10-03T14:15:00Z,29.2533,-90.6633,1.0,10.4,326.0,-9999.0,'1111122,1111122,1111122' 
LUMCON,ioos:station:LUMCON:101:1,2015-10-03T14:30:00Z,29.2533,-90.6633,1.0,11.4,343.0,-9999.0,'1111122,1111122,1111122' 
LUMCON,ioos:station:LUMCON:101:1,2015-10-03T14:45:00Z,29.2533,-90.6633,1.0,9.3,332.0,-9999.0,'1111122,1111122,1111122' 
LUMCON,ioos:station:LUMCON:101:1,2015-10-03T15:00:00Z,29.2533,-90.6633,1.0,9.7,325.0,-9999.0,'1111122,1111122,1111122' 
LUMCON,ioos:station:LUMCON:101:1,2015-10-03T15:15:00Z,29.2533,-90.6633,1.0,9.7,335.0,-9999.0,'1111122,1111122,1111122' 
LUMCON,ioos:station:LUMCON:101:1,2015-10-03T15:30:00Z,29.2533,-90.6633,1.0,8.7,313.0,-9999.0,'1111122,1111122,1111122' 
LUMCON,ioos:station:LUMCON:101:1,2015-10-03T15:45:00Z,29.2533,-90.6633,1.0,8.5,324.0,-9999.0,'1111122,1111122,1111122' 
LUMCON,ioos:station:LUMCON:101:1,2015-10-03T16:00:00Z,29.2533,-90.6633,1.0,11.4,300.0,-9999.0,'1111122,1111122,1111122' 